Location: Dodgeville
(42.9600°N, 90.1300°W)
Time: 03:13:39
(UTC-05:00)

Amateur Radio Satellites - All Passes

Search period start: 27 March 2015 02:43
Search period end: 28 March 2015 02:43
Location: Dodgeville, 42.9600°N, 90.1300°W

Satellite Date Start Highest point End Downlink Frequencies (MHz)
Time Altitude Azimuth
ITUPSAT 1 27 Mar 02:48:12 02:52:11 25° 267° (W) 02:56:05 437.325
YUBILEINY 27 Mar 02:49:42 02:57:47 41° 273° (W) 03:05:42 435.215
KKS-1 27 Mar 02:56:12 03:00:39 88° 71° (ENE) 03:05:07 437.445
SO-50 27 Mar 03:09:14 03:12:37 18° 36° (NE) 03:16:06 436.795
RS-15 27 Mar 03:16:46 03:27:18 42° 36° (NE) 03:38:23 29.354- 29.394
ITAMSAT 1 27 Mar 03:22:20 03:27:31 68° 102° (ESE) 03:32:40 435.822/435.867
HORYU 2 27 Mar 03:24:11 03:25:55 12° 88° (E) 03:27:53 437.375
STARS 27 Mar 03:35:02 03:39:20 55° 260° (W) 03:43:39 437.465
Gurwin Techsat 1B 27 Mar 03:54:59 04:00:20 77° 287° (WNW) 04:05:38 435.225
AO-7 27 Mar 03:57:39 04:03:51 24° 91° (E) 04:10:21 29.400- 29.500
ISS 27 Mar 03:59:06 04:01:26 18° 6° (N) 04:03:46 145.825
Oscar 19 27 Mar 04:03:32 04:07:12 19° 297° (WNW) 04:10:43 437.125/150
JAS-2 27 Mar 04:05:28 04:11:29 25° 87° (E) 04:17:25 435.910
MOZHAYETS 4 27 Mar 04:11:35 04:15:38 32° 69° (ENE) 04:19:47
AUBIESAT-1 27 Mar 04:40:41 04:44:20 37° 64° (ENE) 04:48:22 437.475
O/OREOS (USA 219) 27 Mar 04:47:21 04:51:46 50° 109° (ESE) 04:56:15 437.305
SO-50 27 Mar 04:48:53 04:53:52 87° 234° (SW) 04:58:47 436.795
HORYU 2 27 Mar 04:58:37 05:03:07 67° 286° (WNW) 05:07:35 437.375
AIST 1 27 Mar 04:59:47 05:04:12 88° 98° (E) 05:08:38
M-CUBED/EXP-1 PRIME 27 Mar 05:02:25 05:06:20 73° 70° (ENE) 05:10:39 437.505
ITAMSAT 1 27 Mar 05:03:09 05:06:33 17° 299° (WNW) 05:09:44 435.822/435.867
GONETS M04 27 Mar 05:11:18 05:15:38 15° 54° (NE) 05:20:32
RS-15 27 Mar 05:29:18 05:40:45 73° 241° (WSW) 05:52:39 29.354- 29.394
ISS 27 Mar 05:35:22 05:38:27 40° 25° (NNE) 05:41:31 145.825
STRAND 1 27 Mar 05:35:27 05:37:58 14° 60° (ENE) 05:40:42 437.568
Gurwin Techsat 1B 27 Mar 05:37:41 05:39:32 11° 302° (WNW) 05:41:05 435.225
MOZHAYETS 4 27 Mar 05:48:57 05:52:54 27° 266° (W) 05:56:50
AO-7 27 Mar 05:49:16 05:57:34 77° 291° (WNW) 06:05:50 29.400- 29.500
JAS-2 27 Mar 05:49:27 05:57:18 72° 287° (WNW) 06:04:34 435.910
CUBESAT XI-V 27 Mar 05:51:08 05:55:08 28° 68° (ENE) 05:59:11 437.345
PRISM 27 Mar 06:11:46 06:15:38 37° 70° (ENE) 06:19:33 437.425
AUBIESAT-1 27 Mar 06:16:24 06:19:24 20° 264° (W) 06:22:29 437.475
VERMONT LUNAR 27 Mar 06:18:22 06:20:09 14° 151° (SSE) 06:22:00 437.305
O/OREOS (USA 219) 27 Mar 06:28:08 06:31:33 20° 307° (NW) 06:34:52 437.305
SO-50 27 Mar 06:32:09 06:33:46 11° 252° (WSW) 06:35:05 436.795
Cubesat XI-IV 27 Mar 07:02:23 07:07:32 48° 99° (E) 07:12:40 437.490
CUTE-I 27 Mar 07:03:00 07:08:09 48° 99° (E) 07:13:16 437.470
GONETS M04 27 Mar 07:05:48 07:14:37 69° 79° (ENE) 07:23:26
STRAND 1 27 Mar 07:11:24 07:16:34 83° 256° (WSW) 07:21:46 437.568
ISS 27 Mar 07:11:56 07:14:47 28° 222° (SW) 07:17:35 145.825
CUSAT 1 27 Mar 07:17:40 07:19:39 13° 71° (ENE) 07:22:06 437.405
CUBESAT XI-V 27 Mar 07:28:17 07:32:31 32° 265° (W) 07:36:43 437.345
JAS-2 27 Mar 07:36:19 07:41:04 17° 307° (NW) 07:45:21 435.910
AO-7 27 Mar 07:43:42 07:49:13 19° 311° (NW) 07:54:25 29.400- 29.500
RS-15 27 Mar 07:44:30 07:51:34 17° 260° (W) 07:57:54 29.354- 29.394
PRISM 27 Mar 07:48:06 07:51:17 20° 267° (W) 07:54:21 437.425
DANDE 27 Mar 07:50:17 07:53:04 20° 75° (ENE) 07:56:34 436.750
VERMONT LUNAR 27 Mar 07:54:13 07:57:23 40° 166° (SSE) 08:00:35 437.305
PHONESAT 2.4 27 Mar 08:13:26 08:16:37 32° 161° (SSE) 08:19:49 2401.200-2431.200
HO-68 27 Mar 08:30:50 08:35:29 19° 88° (E) 08:40:27 435.675
GOMX 1 27 Mar 08:34:13 08:35:56 12° 89° (E) 08:37:54 467.674
Cubesat XI-IV 27 Mar 08:43:07 08:47:23 24° 296° (WNW) 08:51:31 437.490
CUTE-I 27 Mar 08:43:43 08:47:58 24° 296° (WNW) 08:52:05 437.470
SEEDS 27 Mar 08:52:23 08:54:36 14° 89° (E) 08:57:01 437.485
AAUSAT CUBESAT 2 27 Mar 08:55:25 08:55:40 10° 86° (E) 08:56:13 437.432
CUSAT 1 27 Mar 08:58:35 09:02:29 54° 261° (W) 09:07:39 437.405
GONETS M04 27 Mar 09:03:45 09:10:49 27° 277° (W) 09:17:33
BRITE-PL 27 Mar 09:10:49 09:14:51 47° 99° (E) 09:19:02 437.365/2234.400
COMPASS 1 27 Mar 09:17:53 09:21:10 22° 93° (E) 09:24:32 437.405
VERMONT LUNAR 27 Mar 09:31:36 09:34:55 56° 183° (S) 09:38:14 437.305
DANDE 27 Mar 09:32:56 09:36:19 30° 262° (W) 09:40:34 436.750
CANX-2 27 Mar 09:39:12 09:43:29 61° 100° (E) 09:47:45 2200.000
UNISAT 6 27 Mar 09:49:58 09:53:09 21° 67° (ENE) 09:56:27 437.425
PHONESAT 2.4 27 Mar 09:51:14 09:54:43 58° 178° (S) 09:58:13 2401.200-2431.200
CUTE 1.7 + AOD 2 27 Mar 09:53:30 09:57:51 80° 102° (ESE) 10:02:09 437.475
TIGRISAT 27 Mar 10:01:02 10:04:33 26° 68° (ENE) 10:08:11 435.000
POPSAT HIP 1 27 Mar 10:06:24 10:09:03 17° 65° (ENE) 10:11:49 437.405
UKube-1 27 Mar 10:06:30 10:07:31 11° 88° (E) 10:08:49 .
CINEMA 3 27 Mar 10:08:46 10:12:58 47° 99° (E) 10:17:22 145.822/145.860
GOMX 1 27 Mar 10:10:22 10:14:31 58° 286° (WNW) 10:18:50 467.674
DOVE 4 27 Mar 10:10:52 10:15:09 85° 286° (WNW) 10:19:38 437.250
DX 1 27 Mar 10:12:22 10:14:32 14° 90° (E) 10:16:53 434.975-435.025
HO-68 27 Mar 10:16:54 10:24:09 82° 288° (WNW) 10:31:21 435.675
NANOSAT C BR1 27 Mar 10:17:28 10:20:39 22° 67° (ENE) 10:23:55 145.865
BUGSAT 1 27 Mar 10:19:05 10:21:39 17° 66° (ENE) 10:24:20 437.445
POLYITAN 1 27 Mar 10:19:17 10:22:34 23° 68° (ENE) 10:25:57 437.675
DELFI C3 27 Mar 10:22:46 10:26:33 35° 96° (E) 10:30:20 145.870
SEEDS 27 Mar 10:26:37 10:30:48 53° 287° (WNW) 10:34:58 437.485
AAUSAT CUBESAT 2 27 Mar 10:27:40 10:31:55 72° 284° (WNW) 10:36:07 437.432
HUMSAT D 27 Mar 10:28:08 10:30:17 14° 89° (E) 10:32:38 437.325/437.525
BEESAT 3 27 Mar 10:28:33 10:31:27 19° 113° (ESE) 10:34:29 437.485
ANTELSAT 27 Mar 10:29:16 10:33:24 54° 73° (ENE) 10:37:38 437.575/2403.000
Oscar 11 27 Mar 10:34:23 10:38:43 62° 101° (E) 10:43:03 145.826/435.025
CUBEBUG 2 27 Mar 10:37:19 10:41:36 53° 99° (E) 10:46:02 437.445
UWE-3 27 Mar 10:37:36 10:41:46 44° 98° (E) 10:46:05 435.000/436.395/437.385
FUNcube-1 27 Mar 10:40:00 10:44:02 37° 97° (E) 10:48:10 145.935
VELOX 1 27 Mar 10:42:35 10:44:27 13° 89° (E) 10:46:32 145.980
AISAT 27 Mar 10:45:45 10:48:05 14° 89° (E) 10:50:36 437.250
BRITE-PL 27 Mar 10:50:35 10:53:08 16° 294° (WNW) 10:55:35 437.365/2234.400
ZACube-1 27 Mar 10:51:46 10:56:01 50° 99° (E) 11:00:22 437.345
COMPASS 1 27 Mar 10:53:07 10:56:59 33° 289° (WNW) 11:00:46 437.405
QB50P1 27 Mar 10:57:06 11:01:14 57° 74° (ENE) 11:05:24 145.935-145.965
DUCHIFAT 1 27 Mar 11:00:24 11:04:33 61° 74° (ENE) 11:08:42 145.980
ESTCUBE 1 27 Mar 11:07:21 11:09:13 13° 88° (E) 11:11:18 437.505/2401.250
VERMONT LUNAR 27 Mar 11:09:23 11:12:23 29° 199° (SSW) 11:15:23 437.305
QB50P2 27 Mar 11:10:57 11:15:11 84° 78° (ENE) 11:19:26 145.880/145.840
CANX-2 27 Mar 11:16:41 11:18:59 14° 296° (WNW) 11:21:07 2200.000
BEESAT 2 27 Mar 11:25:05 11:29:09 65° 121° (ESE) 11:33:18 435.950
UNISAT 6 27 Mar 11:25:49 11:29:46 36° 263° (W) 11:33:44 437.425
PHONESAT 2.4 27 Mar 11:29:30 11:32:52 41° 195° (SSW) 11:36:14 2401.200-2431.200
CUTE 1.7 + AOD 2 27 Mar 11:31:57 11:33:12 11° 298° (WNW) 11:34:15 437.475
TIGRISAT 27 Mar 11:37:36 11:41:17 28° 265° (W) 11:44:57 435.000
UKube-1 27 Mar 11:39:56 11:44:15 70° 286° (WNW) 11:48:32 .
POPSAT HIP 1 27 Mar 11:40:33 11:44:38 46° 261° (W) 11:48:42 437.405
50 SAT 27 Mar 11:40:59 11:44:59 59° 100° (E) 11:48:59 437.505
DX 1 27 Mar 11:46:56 11:51:12 55° 287° (WNW) 11:55:26 434.975-435.025
CINEMA 3 27 Mar 11:46:58 11:49:56 18° 294° (WNW) 11:52:50 145.822/145.860
NANOSAT C BR1 27 Mar 11:52:28 11:56:21 34° 263° (W) 12:00:12 145.865
BUGSAT 1 27 Mar 11:52:48 11:56:51 46° 261° (W) 12:00:50 437.445
POLYITAN 1 27 Mar 11:54:34 11:58:22 32° 264° (W) 12:02:10 437.675
DELFI C3 27 Mar 11:58:27 12:01:32 20° 293° (WNW) 12:04:32 145.870
HUMSAT D 27 Mar 12:02:18 12:06:26 53° 287° (WNW) 12:10:36 437.325/437.525
Oscar 19 27 Mar 12:05:09 12:07:18 13° 59° (ENE) 12:09:43 437.125/150
BEESAT 3 27 Mar 12:05:19 12:09:15 43° 309° (NW) 12:13:14 437.485
HO-68 27 Mar 12:06:17 12:10:56 18° 306° (NW) 12:15:19 435.675
ANTELSAT 27 Mar 12:08:24 12:10:39 14° 271° (W) 12:12:44 437.575/2403.000
Oscar 11 27 Mar 12:12:07 12:14:27 14° 296° (WNW) 12:16:37 145.826/435.025
UWE-3 27 Mar 12:14:57 12:18:04 19° 293° (WNW) 12:21:09 435.000/436.395/437.385
CUBEBUG 2 27 Mar 12:15:12 12:17:59 16° 295° (WNW) 12:20:40 437.445
FUNcube-1 27 Mar 12:16:50 12:20:12 22° 293° (WNW) 12:23:33 145.935
VELOX 1 27 Mar 12:17:08 12:21:31 62° 287° (WNW) 12:25:51 145.980
AISAT 27 Mar 12:20:46 12:25:06 55° 287° (WNW) 12:29:24 437.250
AIST 2 27 Mar 12:22:54 12:27:10 90° 132° (SE) 12:31:30 435.215
CUBEBUG 1 27 Mar 12:24:17 12:28:38 74° 102° (ESE) 12:32:57 437.445
ZACube-1 27 Mar 12:29:14 12:32:04 17° 294° (WNW) 12:34:48 437.345
QB50P1 27 Mar 12:35:34 12:37:34 13° 271° (W) 12:39:21 145.935-145.965
DUCHIFAT 1 27 Mar 12:39:09 12:40:52 12° 272° (W) 12:42:21 145.980
TISAT 1 27 Mar 12:41:40 12:45:06 24° 94° (E) 12:48:35 437.305
ESTCUBE 1 27 Mar 12:42:08 12:46:38 65° 286° (WNW) 12:51:05 437.505/2401.250
SPROUT 27 Mar 12:43:01 12:46:48 30° 95° (E) 12:50:38 437.525
ITAMSAT 1 27 Mar 13:04:28 13:07:28 16° 61° (ENE) 13:10:39 435.822/435.867
BEESAT 2 27 Mar 13:04:53 13:07:45 17° 320° (NW) 13:10:33 435.950
PHONESAT 2.4 27 Mar 13:08:43 13:10:43 14° 209° (SSW) 13:12:40 2401.200-2431.200
50 SAT 27 Mar 13:17:36 13:19:30 13° 296° (WNW) 13:21:13 437.505
O/OREOS (USA 219) 27 Mar 13:18:29 13:20:57 14° 49° (NE) 13:23:32 437.305
Gurwin Techsat 1B 27 Mar 13:38:28 13:42:41 25° 65° (ENE) 13:47:02 435.225
Oscar 19 27 Mar 13:40:53 13:46:00 89° 246° (WSW) 13:51:11 437.125/150
YUBILEINY 27 Mar 13:54:23 14:02:43 51° 90° (E) 14:11:11 435.215
SWISSCUBE 27 Mar 13:58:27 14:02:36 29° 95° (E) 14:06:48 437.505
BEESAT 27 Mar 14:01:50 14:06:00 29° 95° (E) 14:10:11 436.000
CUBEBUG 1 27 Mar 14:02:49 14:04:28 12° 298° (WNW) 14:05:56 437.445
AIST 2 27 Mar 14:03:56 14:06:26 15° 323° (NW) 14:08:49 435.215
TISAT 1 27 Mar 14:17:15 14:20:55 29° 291° (WNW) 14:24:31 437.305
SPROUT 27 Mar 14:19:18 14:22:49 25° 292° (WNW) 14:26:15 437.525
JAS-2 27 Mar 14:21:06 14:24:11 14° 50° (NE) 14:27:44 435.910
HORYU 2 27 Mar 14:23:46 14:25:57 14° 62° (ENE) 14:28:19 437.375
ITAMSAT 1 27 Mar 14:41:12 14:46:26 75° 257° (WSW) 14:51:41 435.822/435.867
ITUPSAT 1 27 Mar 14:46:49 14:51:39 80° 103° (ESE) 14:56:27 437.325
KKS-1 27 Mar 14:47:44 14:50:24 16° 90° (E) 14:53:15 437.445
O/OREOS (USA 219) 27 Mar 14:56:25 15:01:00 73° 249° (WSW) 15:05:29 437.305
AO-7 27 Mar 14:57:28 15:04:49 38° 60° (ENE) 15:12:17 29.400- 29.500
PCSat 27 Mar 14:58:49 15:03:29 31° 111° (ESE) 15:08:15 145.827
AIST 1 27 Mar 15:06:45 15:10:13 23° 71° (ENE) 15:13:43
Gurwin Techsat 1B 27 Mar 15:17:21 15:22:27 45° 262° (W) 15:27:33 435.225
STARS 27 Mar 15:24:21 15:27:57 25° 94° (E) 15:31:38 437.465
Oscar 19 27 Mar 15:25:12 15:26:15 10° 275° (W) 15:26:55 437.125/150
SWISSCUBE 27 Mar 15:36:13 15:40:28 31° 292° (WNW) 15:44:39 437.505
BEESAT 27 Mar 15:39:36 15:43:51 32° 292° (WNW) 15:48:02 436.000
YUBILEINY 27 Mar 15:51:48 15:59:53 37° 291° (WNW) 16:07:52 435.215
HORYU 2 27 Mar 15:57:44 16:02:08 65° 259° (W) 16:06:34 437.375
JAS-2 27 Mar 16:01:02 16:07:43 61° 70° (ENE) 16:15:12 435.910
KKS-1 27 Mar 16:23:06 16:27:24 50° 288° (WNW) 16:31:42 437.445
ITUPSAT 1 27 Mar 16:26:40 16:28:58 13° 299° (WNW) 16:31:03 437.325
PCSat 27 Mar 16:41:40 16:46:48 41° 309° (NW) 16:51:56 145.827
AIST 1 27 Mar 16:44:08 16:47:56 30° 269° (W) 16:51:39
Cubesat XI-IV 27 Mar 16:49:00 16:51:15 13° 58° (ENE) 16:53:44 437.490
AO-7 27 Mar 16:49:19 16:57:25 54° 259° (WSW) 17:05:30 29.400- 29.500
CUTE-I 27 Mar 16:49:30 16:51:43 13° 58° (ENE) 16:54:11 437.470
STARS 27 Mar 17:00:33 17:04:28 32° 291° (WNW) 17:08:21 437.465
MOZHAYETS 4 27 Mar 17:42:18 17:46:58 68° 100° (E) 17:51:35
JAS-2 27 Mar 17:47:36 17:53:22 27° 272° (W) 17:59:28 435.910
RS-15 27 Mar 17:48:43 17:53:29 15° 99° (E) 17:59:10 29.354- 29.394
AUBIESAT-1 27 Mar 17:55:29 17:59:42 30° 100° (E) 18:03:55 437.475
GONETS M04 27 Mar 18:16:39 18:20:36 15° 76° (ENE) 18:25:10
M-CUBED/EXP-1 PRIME 27 Mar 18:17:42 18:22:30 55° 105° (ESE) 18:27:13 437.505
Cubesat XI-IV 27 Mar 18:25:14 18:30:37 85° 77° (ENE) 18:36:03 437.490
CUTE-I 27 Mar 18:25:42 18:31:04 85° 77° (ENE) 18:36:29 437.470
BEESAT 3 27 Mar 18:46:06 18:49:08 20° 42° (NE) 18:52:13 437.485
HO-68 27 Mar 19:01:49 19:06:08 18° 54° (NE) 19:10:44 435.675
SO-50 27 Mar 19:05:00 19:08:42 25° 113° (ESE) 19:12:36 436.795
AIST 2 27 Mar 19:06:58 19:08:56 13° 35° (NE) 19:10:59 435.215
MOZHAYETS 4 27 Mar 19:21:06 19:23:42 15° 297° (WNW) 19:26:07
STRAND 1 27 Mar 19:21:28 19:25:58 31° 95° (E) 19:30:29 437.568
CUBESAT XI-V 27 Mar 19:23:34 19:28:10 60° 100° (E) 19:32:43 437.345
PRISM 27 Mar 19:28:36 19:32:43 53° 100° (E) 19:36:46 437.425
AUBIESAT-1 27 Mar 19:30:07 19:34:31 34° 296° (WNW) 19:38:48 437.475
GOMX 1 27 Mar 19:43:23 19:46:10 17° 66° (ENE) 19:48:59 467.674
DOVE 4 27 Mar 19:43:46 19:44:43 11° 63° (ENE) 19:45:54 437.250
BEESAT 2 27 Mar 19:43:52 19:47:57 52° 52° (NE) 19:51:57 435.950
SEEDS 27 Mar 19:46:38 19:48:13 12° 63° (ENE) 19:50:00 437.485
RS-15 27 Mar 19:53:15 20:03:59 70° 118° (ESE) 20:14:59 29.354- 29.394
M-CUBED/EXP-1 PRIME 27 Mar 19:53:23 19:57:00 21° 301° (WNW) 20:00:29 437.505
GONETS M04 27 Mar 20:07:28 20:16:06 77° 95° (E) 20:24:52
Cubesat XI-IV 27 Mar 20:09:11 20:11:33 12° 274° (W) 20:13:35 437.490
CUTE-I 27 Mar 20:09:36 20:11:58 12° 274° (W) 20:14:01 437.470
COMPASS 1 27 Mar 20:10:49 20:13:36 18° 66° (ENE) 20:16:32 437.405
BRITE-PL 27 Mar 20:22:26 20:27:10 64° 74° (ENE) 20:31:34 437.365/2234.400
BEESAT 3 27 Mar 20:23:30 20:27:31 51° 241° (WSW) 20:31:26 437.485
CANX-2 27 Mar 20:33:02 20:37:05 48° 73° (ENE) 20:41:13 2200.000
AIST 2 27 Mar 20:44:01 20:48:18 77° 55° (NE) 20:52:30 435.215
SO-50 27 Mar 20:44:34 20:49:02 43° 311° (NW) 20:53:39 436.795
HO-68 27 Mar 20:45:45 20:52:55 82° 73° (ENE) 21:00:09 435.675
CUTE 1.7 + AOD 2 27 Mar 20:47:09 20:51:19 63° 75° (ENE) 20:55:33 437.475
STRAND 1 27 Mar 21:00:36 21:05:11 34° 293° (WNW) 21:09:42 437.568
CUBESAT XI-V 27 Mar 21:02:21 21:05:11 16° 297° (WNW) 21:07:51 437.345
UKube-1 27 Mar 21:02:34 21:04:11 12° 62° (ENE) 21:06:01 .
PRISM 27 Mar 21:05:21 21:07:49 15° 296° (WNW) 21:10:07 437.425
DANDE 27 Mar 21:06:27 21:08:34 17° 96° (E) 21:10:33 436.750
DX 1 27 Mar 21:09:13 21:11:40 15° 63° (ENE) 21:14:16 434.975-435.025
DELFI C3 27 Mar 21:11:48 21:15:08 25° 69° (ENE) 21:18:32 145.870
CINEMA 3 27 Mar 21:11:50 21:15:52 46° 73° (ENE) 21:19:53 145.822/145.860
DOVE 4 27 Mar 21:17:39 21:22:04 76° 259° (WSW) 21:26:17 437.250
AAUSAT CUBESAT 2 27 Mar 21:19:14 21:23:24 85° 77° (ENE) 21:27:37 437.432
SEEDS 27 Mar 21:19:21 21:23:32 68° 259° (W) 21:27:46 437.485
GOMX 1 27 Mar 21:19:38 21:24:04 49° 261° (W) 21:28:15 467.674
HUMSAT D 27 Mar 21:22:24 21:23:45 12° 63° (ENE) 21:25:17 437.325/437.525
BEESAT 2 27 Mar 21:23:09 21:25:43 16° 249° (WSW) 21:28:07 435.950
Oscar 11 27 Mar 21:29:55 21:34:07 53° 73° (ENE) 21:38:21 145.826/435.025
UWE-3 27 Mar 21:36:04 21:39:54 38° 71° (ENE) 21:43:47 435.000/436.395/437.385
CUBEBUG 2 27 Mar 21:36:50 21:40:49 47° 73° (ENE) 21:44:50 437.445
FUNcube-1 27 Mar 21:37:10 21:40:48 31° 70° (ENE) 21:44:31 145.935
VELOX 1 27 Mar 21:41:27 21:43:47 15° 63° (ENE) 21:46:18 145.980
AISAT 27 Mar 21:44:54 21:47:33 16° 64° (ENE) 21:50:22 437.250
COMPASS 1 27 Mar 21:45:03 21:49:02 42° 262° (W) 21:53:03 437.405
ZACube-1 27 Mar 21:48:59 21:52:53 43° 72° (ENE) 21:56:51 437.345
BRITE-PL 27 Mar 22:03:49 22:06:08 13° 271° (W) 22:08:08 437.365/2234.400
RS-15 27 Mar 22:07:03 22:17:16 41° 324° (NW) 22:27:38 29.354- 29.394
GONETS M04 27 Mar 22:07:07 22:14:03 25° 298° (WNW) 22:20:45
ESTCUBE 1 27 Mar 22:08:08 22:10:33 15° 63° (ENE) 22:13:09 437.505/2401.250
CANX-2 27 Mar 22:10:47 22:13:22 15° 270° (W) 22:15:49 2200.000
CUSAT 1 27 Mar 22:11:17 22:13:52 28° 284° (WNW) 22:16:13 437.405
ANTELSAT 27 Mar 22:22:26 22:23:46 11° 87° (E) 22:25:23 437.575/2403.000
AIST 2 27 Mar 22:25:07 22:26:21 11° 251° (WSW) 22:27:19 435.215
CUTE 1.7 + AOD 2 27 Mar 22:26:07 22:27:46 12° 273° (W) 22:29:11 437.475
50 SAT 27 Mar 22:28:08 22:31:46 38° 71° (ENE) 22:35:27 437.505
SO-50 27 Mar 22:29:52 22:30:56 11° 334° (NNW) 22:31:51 436.795
UKube-1 27 Mar 22:35:30 22:39:50 73° 258° (WSW) 22:44:11 .
HO-68 27 Mar 22:36:36 22:41:35 19° 272° (W) 22:46:14 435.675
DX 1 27 Mar 22:43:13 22:47:31 57° 259° (W) 22:51:50 434.975-435.025
DELFI C3 27 Mar 22:46:46 22:50:15 27° 265° (W) 22:53:44 145.870
DANDE 27 Mar 22:50:07 22:51:49 14° 287° (WNW) 22:53:18 436.750
CINEMA 3 27 Mar 22:50:56 22:53:25 15° 270° (W) 22:55:44 145.822/145.860
HUMSAT D 27 Mar 22:54:58 22:59:02 67° 259° (W) 23:03:09 437.325/437.525
QB50P2 27 Mar 22:57:18 22:59:09 13° 89° (E) 23:01:12 145.880/145.840
Oscar 11 27 Mar 23:08:16 23:10:42 14° 271° (W) 23:12:57 145.826/435.025
UWE-3 27 Mar 23:13:45 23:16:40 18° 269° (W) 23:19:29 435.000/436.395/437.385
FUNcube-1 27 Mar 23:13:59 23:17:15 22° 267° (W) 23:20:27 145.935
CUBEBUG 2 27 Mar 23:15:29 23:17:53 14° 270° (W) 23:20:07 437.445
VELOX 1 27 Mar 23:15:31 23:19:56 62° 259° (W) 23:24:21 145.980
UNISAT 6 27 Mar 23:16:15 23:20:34 41° 98° (E) 23:24:59 437.425
AISAT 27 Mar 23:19:25 23:23:47 54° 260° (W) 23:28:10 437.250
CUBEBUG 1 27 Mar 23:21:05 23:25:30 69° 74° (ENE) 23:29:53 437.445
POPSAT HIP 1 27 Mar 23:25:14 23:28:44 25° 94° (E) 23:32:18 437.405
ZACube-1 27 Mar 23:26:53 23:29:33 16° 270° (W) 23:32:05 437.345
TIGRISAT 27 Mar 23:27:20 23:31:46 53° 99° (E) 23:36:19 435.000
BUGSAT 1 27 Mar 23:34:46 23:37:54 22° 94° (E) 23:41:06 437.445
TISAT 1 27 Mar 23:35:13 23:38:26 22° 67° (ENE) 23:41:45 437.305
NANOSAT C BR1 27 Mar 23:36:25 23:40:15 33° 96° (E) 23:44:06 145.865
SPROUT 27 Mar 23:38:19 23:41:55 27° 69° (ENE) 23:45:36 437.525
POLYITAN 1 27 Mar 23:38:52 23:42:47 36° 97° (E) 23:46:44 437.675
ESTCUBE 1 27 Mar 23:42:27 23:46:59 64° 260° (W) 23:51:31 437.505/2401.250
PCSat 27 Mar 23:45:15 23:50:07 33° 48° (NE) 23:55:01 145.827
ISS 27 Mar 23:51:00 23:54:08 49° 142° (SE) 23:57:19 145.825
ANTELSAT 27 Mar 23:56:35 00:01:09 75° 285° (WNW) 00:05:48 437.575/2403.000
YUBILEINY 28 Mar 00:03:43 00:10:45 27° 63° (ENE) 00:17:59 435.215
50 SAT 28 Mar 00:04:21 00:06:55 16° 269° (W) 00:09:21 437.505
QB50P1 28 Mar 00:17:05 00:21:20 84° 286° (WNW) 00:25:34 145.935-145.965
ITUPSAT 1 28 Mar 00:19:49 00:21:55 13° 61° (ENE) 00:24:14 437.325
DUCHIFAT 1 28 Mar 00:20:03 00:24:16 80° 284° (WNW) 00:28:28 145.980
RS-15 28 Mar 00:25:16 00:33:45 24° 357° (N) 00:42:27 29.354- 29.394
QB50P2 28 Mar 00:31:20 00:35:31 57° 286° (WNW) 00:39:40 145.880/145.840
UNISAT 6 28 Mar 00:53:39 00:57:09 21° 293° (WNW) 01:00:35 437.425
CUBEBUG 1 28 Mar 01:00:49 01:02:25 11° 272° (W) 01:03:46 437.445
POPSAT HIP 1 28 Mar 01:00:58 01:04:38 29° 291° (WNW) 01:08:15 437.405
TIGRISAT 28 Mar 01:05:09 01:08:12 17° 295° (WNW) 01:11:08 435.000
SWISSCUBE 28 Mar 01:05:51 01:10:15 38° 69° (ENE) 01:14:43 437.505
BEESAT 28 Mar 01:09:09 01:13:32 37° 70° (ENE) 01:17:59 436.000
BUGSAT 1 28 Mar 01:09:54 01:13:27 29° 290° (WNW) 01:16:56 437.445
TISAT 1 28 Mar 01:10:14 01:14:05 34° 263° (W) 01:17:56 437.305
NANOSAT C BR1 28 Mar 01:12:38 01:15:58 22° 293° (WNW) 01:19:12 145.865
SPROUT 28 Mar 01:14:17 01:17:59 27° 265° (W) 01:21:39 437.525
POLYITAN 1 28 Mar 01:15:18 01:18:32 21° 293° (WNW) 01:21:39 437.675
ISS 28 Mar 01:27:46 01:30:41 29° 339° (NNW) 01:33:35 145.825
PCSat 28 Mar 01:28:34 01:33:38 40° 248° (WSW) 01:38:38 145.827
KKS-1 28 Mar 01:47:10 01:50:02 18° 65° (ENE) 01:53:03 437.445
Oscar 19 28 Mar 01:51:53 01:56:23 30° 95° (E) 02:00:58 437.125/150
ITUPSAT 1 28 Mar 01:54:25 01:59:14 81° 258° (WSW) 02:04:06 437.325
YUBILEINY 28 Mar 01:59:45 02:08:32 72° 266° (W) 02:17:14 435.215
STARS 28 Mar 02:22:28 02:26:01 25° 68° (ENE) 02:29:40 437.465
